2022/12/25 00:00:00,63.6,-1.1
2022/12/25 00:10:00,64.2,-1.0
2022/12/25 00:20:00,64.0,-0.9
2022/12/25 00:30:00,63.8,-0.8
2022/12/25 00:40:00,63.9,-0.7
2022/12/25 00:50:00,63.8,-0.8
2022/12/25 01:00:00,63.8,-0.9
2022/12/25 01:10:00,63.7,-1.0
2022/12/25 01:20:00,63.7,-1.0
2022/12/25 01:30:00,63.6,-1.1
2022/12/25 01:40:00,63.6,-0.9
2022/12/25 01:50:00,63.8,-1.1
2022/12/25 02:00:00,63.7,-1.0
2022/12/25 02:10:00,63.6,-0.8
2022/12/25 02:20:00,63.4,-0.9
2022/12/25 02:30:00,63.2,-0.9
2022/12/25 02:40:00,63.2,-1.0
2022/12/25 02:50:00,63.5,-1.0
2022/12/25 03:00:00,63.5,-1.2
2022/12/25 03:10:00,63.8,-1.0
2022/12/25 03:20:00,63.8,-0.8
2022/12/25 03:30:00,63.7,-0.8
2022/12/25 03:40:00,63.9,-0.9
2022/12/25 03:50:00,63.9,-0.8
2022/12/25 04:00:00,64.1,-0.8
2022/12/25 04:10:00,64.3,-0.8
2022/12/25 04:20:00,64.4,-0.9
2022/12/25 04:30:00,64.5,-0.8
2022/12/25 04:40:00,64.6,-1.0
2022/12/25 04:50:00,64.7,-1.1
2022/12/25 05:00:00,64.7,-1.0
2022/12/25 05:10:00,64.7,-1.0
2022/12/25 05:20:00,64.7,-1.0
2022/12/25 05:30:00,64.7,-0.8
2022/12/25 05:40:00,64.8,-1.2
2022/12/25 05:50:00,65.2,-0.8
2022/12/25 06:00:00,65.4,-0.5
2022/12/25 06:10:00,65.4,-0.9
2022/12/25 06:20:00,65.4,-0.7
2022/12/25 06:30:00,65.3,-0.7
2022/12/25 06:40:00,65.2,-0.8
2022/12/25 06:50:00,65.3,-1.0
2022/12/25 07:00:00,65.5,-0.8
2022/12/25 07:10:00,65.4,-0.5
2022/12/25 07:20:00,65.4,-0.4
2022/12/25 07:30:00,65.4,-0.5
2022/12/25 07:40:00,65.4,-0.5
2022/12/25 07:50:00,65.3,-0.6
2022/12/25 08:00:00,65.2,-0.5
2022/12/25 08:10:00,65.1,-0.7
2022/12/25 08:20:00,65.0,-0.5
2022/12/25 08:30:00,64.8,-0.6
2022/12/25 08:40:00,64.6,-0.7
2022/12/25 08:50:00,64.8,-0.3
2022/12/25 09:00:00,64.6,-0.2
2022/12/25 09:10:00,64.6, 0.0
2022/12/25 09:20:00,64.6, 0.0
2022/12/25 09:30:00,64.4, 0.5
2022/12/25 09:40:00,64.2, 0.2
2022/12/25 09:50:00,64.2, 0.4
2022/12/25 10:00:00,64.2, 0.3
2022/12/25 10:10:00,64.0, 0.3
2022/12/25 10:20:00,63.7, 2.1
2022/12/25 10:30:00,63.4, 2.5
2022/12/25 10:40:00,63.2, 4.0
2022/12/25 10:50:00,63.4, 3.6
2022/12/25 11:00:00,63.3, 3.9
2022/12/25 11:10:00,63.1, 3.2
2022/12/25 11:20:00,63.0, 2.9
2022/12/25 11:30:00,62.9, 2.3
2022/12/25 11:40:00,62.9, 2.1
2022/12/25 11:50:00,62.7, 2.9
2022/12/25 12:00:00,62.3, 4.5
2022/12/25 12:10:00,62.2, 7.6
2022/12/25 12:20:00,61.9, 5.3
2022/12/25 12:30:00,61.6, 7.0
2022/12/25 12:40:00,61.5, 4.0
2022/12/25 12:50:00,61.6, 2.0
2022/12/25 13:00:00,61.5, 2.2
2022/12/25 13:10:00,61.4, 2.1
2022/12/25 13:20:00,61.3, 1.8
2022/12/25 13:30:00,61.3, 1.1
2022/12/25 13:40:00,61.3, 1.0
2022/12/25 13:50:00,61.1, 0.7
2022/12/25 14:00:00,60.8, 0.6
2022/12/25 14:10:00,61.0, 0.4
2022/12/25 14:20:00,60.9, 0.3
2022/12/25 14:30:00,60.9, 0.3
2022/12/25 14:40:00,60.7, 0.1
2022/12/25 14:50:00,60.8, 0.2
2022/12/25 15:00:00,61.8, 0.0
2022/12/25 15:10:00,62.0, 0.0
2022/12/25 15:20:00,62.1,-0.2
2022/12/25 15:30:00,62.0,-0.3
2022/12/25 15:40:00,62.2,-0.1
2022/12/25 15:50:00,62.8,-0.5
2022/12/25 16:00:00,62.9,-0.4
2022/12/25 16:10:00,63.0,-0.1
2022/12/25 16:20:00,63.6,-0.3
2022/12/25 16:30:00,63.8,-0.4
2022/12/25 16:40:00,64.0,-0.4
2022/12/25 16:50:00,64.3,-0.5
2022/12/25 17:00:00,64.2,-0.2
2022/12/25 17:10:00,64.2,-0.2
2022/12/25 17:20:00,64.0,-0.4
2022/12/25 17:30:00,63.8,-0.3
2022/12/25 17:40:00,63.6,-0.4
2022/12/25 17:50:00,63.4,-0.4
2022/12/25 18:00:00,63.4,-0.4
2022/12/25 18:10:00,63.4,-0.3
2022/12/25 18:20:00,63.7,-0.1
2022/12/25 18:30:00,63.9,-0.3
2022/12/25 18:40:00,64.2, 0.0
2022/12/25 18:50:00,64.8,-0.4
2022/12/25 19:00:00,64.9,-0.2
2022/12/25 19:10:00,65.1,-0.5
2022/12/25 19:20:00,65.0,-0.3
2022/12/25 19:30:00,65.0,-0.3
2022/12/25 19:40:00,64.9,-0.2
2022/12/25 19:50:00,64.9,-0.1
2022/12/25 20:00:00,64.8,-0.4
2022/12/25 20:10:00,64.8,-0.4
2022/12/25 20:20:00,64.8,-0.5
2022/12/25 20:30:00,64.7,-0.4
2022/12/25 20:40:00,64.5,-0.5
2022/12/25 20:50:00,64.4,-0.5
2022/12/25 21:00:00,64.4,-0.5
2022/12/25 21:10:00,64.4,-0.6
2022/12/25 21:20:00,64.6,-0.5
2022/12/25 21:30:00,64.7,-0.7
2022/12/25 21:40:00,64.5,-0.7
2022/12/25 21:50:00,64.4,-0.7
2022/12/25 22:00:00,64.3,-0.9
2022/12/25 22:10:00,64.2,-0.9
2022/12/25 22:20:00,64.1,-1.0
2022/12/25 22:30:00,64.0,-1.0
2022/12/25 22:40:00,63.9,-1.3
2022/12/25 22:50:00,63.9,-1.3
2022/12/25 23:00:00,63.8,-1.1
